Location: Bühlhof
(48.7849°N, 8.6361°E)
Time: 23:42:18
(UTC+00:00)

Cosmos 1833 Rocket - Pass Details

Date: 19 January 2026
Orbit: 832 x 838 km, 71.0° (Epoch: 18 February)

Event Time Altitude Azimuth Distance (km) Brightness Sun altitude
Rises 18:46:36 0° 222° (SW) 3,380 6.4 -26.5°
Reaches altitude 10° 18:49:06 10° 227° (SW) 2,449 5.7 -26.9°
Maximum altitude 18:54:35 53° 304° (NW) 1,029 3.3 -27.8°
Enters shadow 18:56:42 34° 1° (N) 1,345 3.7 -28.2°
